Location: Brabourne
(51.1333°N, 1.0000°E)
Time: 20:23:24
(UTC+00:00)

Cosmos 1825 Rocket - Pass Details

Date: 18 October 2021
Orbit: 604 x 631 km, 82.5° (Epoch: 03 December)

Event Time Altitude Azimuth Distance (km) Brightness Sun altitude
Rises 19:40:53 0° 350° (N) 2,888 7.4 -26.3°
Reaches altitude 10° 19:43:08 10° 351° (N) 1,975 6.4 -26.6°
Enters shadow 19:45:37 34° 354° (N) 1,022 4.8 -27.0°
